Location: Sweet Grass
(48.9965°N, 111.9649°W)
Time: 06:54:07
(UTC+00:00)

EO-79 - Pass Details

Date: 31 March 2023
Orbit: 578 x 593 km, 98.0° (Epoch: 03 June)

Event Time Altitude Azimuth Distance (km) Brightness Sun altitude
Rises 08:56:06 0° 23° (NNE) 2,833 ? -33.8°
Reaches altitude 10° 08:58:33 10° 36° (NE) 1,923 ? -33.7°
Enters shadow 09:00:10 19° 54° (NE) 1,430 ? -33.5°
